sat.trackr.live / text

‹ back to catalog

STARLINK-35245

NORAD 65599 · 2025-207H

PAYLOAD ACTIVE UNKNOWN

§ Identity

Operator
Country
US
Launch date
2025-09-13
Launch site
AFWTR
Launch vehicle
Mass (kg)
RCS (m²)

Purposes: comms

External: N2YO · Heavens-Above · Gunter

§ Orbital elements

Epoch: 2026-05-25T03:59:38.025312Z

Period
95.64 min
Inclination
97.4494°
Eccentricity
0.0002255
Mean motion
15.05648219 rev/d
Perigee alt
548.0 km
Apogee alt
551.1 km
Semi-major
6,927.7 km
B*
-3.8051e-5
RAAN
213.7520°
Arg perigee
160.6769°
Mean anomaly
199.4544°
Rev number
3,977

§ Raw data

STARLINK-352451 65599U 25207H   26145.16641233 -.00000608  00000+0 -38051-4 0  99902 65599  97.4494 213.7520 0002255 160.6769 199.4544 15.05648219 39775

JSON: /api/v1/satellites/65599 · /tle

For live sub-satellite position, see the globe view (requires WebGL).

§ Visibility from observer

Set your observer location to see the next 7 days of passes ≥ 10°. The values pass through the URL so the page stays shareable.

No JS? Fill the form by hand. The geolocation button needs JavaScript.